Location: Innsbruck
(47.2657°N, 11.3914°E)
Time: 17:45:02
(UTC+01:00)

XW-2D - Visible Passes

Search period start: 03 December 2021 00:00
Search period end: 13 December 2021 00:00
Orbit: 504 x 521 km, 97.5° (Epoch: 03 December)

Date Brightness Start Highest point End Pass type
(mag) Time Alt. Az. Time Alt. Az. Time Alt. Az.
03 Dec ? 05:32:39 10° NE 05:35:45 23° E 05:38:50 10° SSE visible
03 Dec ? 07:06:25 10° N 07:09:46 30° WNW 07:13:07 10° SW visible
03 Dec ? 17:48:50 10° SSW 17:52:21 39° W 17:55:56 10° NNW visible
04 Dec ? 05:17:32 10° NE 05:19:56 16° E 05:22:20 10° SE visible
04 Dec ? 06:50:32 10° N 06:54:10 44° WNW 06:57:47 10° SW visible
04 Dec ? 17:32:55 10° S 17:36:37 61° WSW 17:40:22 10° NNW visible
05 Dec ? 05:03:08 10° ENE 05:04:05 11° E 05:05:02 10° ESE visible
05 Dec ? 06:34:44 10° N 06:38:32 67° WNW 06:42:17 10° SSW visible
05 Dec ? 17:17:11 10° SSE 17:20:56 86° ENE 17:24:43 10° NNW visible
06 Dec ? 06:19:01 10° NNE 06:22:51 80° ESE 06:26:39 10° S visible
06 Dec ? 17:01:35 10° SSE 17:05:15 56° ENE 17:08:58 10° N visible
06 Dec ? 18:37:58 10° WSW 18:39:37 12° W 18:41:17 10° WNW visible
07 Dec ? 06:03:23 10° NNE 06:07:07 51° E 06:10:50 10° S visible
07 Dec ? 18:21:06 10° SW 18:23:45 18° W 18:26:27 10° NW visible
08 Dec ? 05:47:52 10° NNE 05:51:22 34° E 05:54:50 10° SSE visible
08 Dec ? 18:04:43 10° SSW 18:07:56 27° W 18:11:12 10° NW visible
09 Dec ? 05:32:29 10° NE 05:35:34 23° E 05:38:37 10° SSE visible
09 Dec ? 07:06:13 10° N 07:09:35 30° WNW 07:12:56 10° SW visible
09 Dec ? 17:48:36 10° S 17:52:09 40° W 17:55:44 10° NNW visible
10 Dec ? 05:17:20 10° NE 05:19:43 16° E 05:22:06 10° SE visible
10 Dec ? 06:50:18 10° N 06:53:57 44° WNW 06:57:34 10° SW visible
10 Dec ? 17:32:40 10° S 17:36:23 62° W 17:40:09 10° NNW visible
11 Dec ? 05:02:57 10° ENE 05:03:50 11° E 05:04:42 10° ESE visible
11 Dec ? 06:34:29 10° N 06:38:16 68° WNW 06:42:03 10° SSW visible
11 Dec ? 17:16:54 10° SSE 17:20:39 86° ENE 17:24:28 10° NNW visible
12 Dec ? 06:18:44 10° NNE 06:22:34 79° ESE 06:26:22 10° S visible
12 Dec ? 17:01:17 10° SSE 17:04:57 56° ENE 17:08:41 10° N visible
12 Dec ? 18:37:36 10° WSW 18:39:19 13° W 18:41:02 10° WNW visible
